Find Starlink 6125

NORAD ID: 57114 Int'l Des: 2023-090 Owner: SPXS Country: US Constellation: starlink operational
LEOCIRCULAR

Live Position

Loading 3D Globe...

About Starlink 6125

Description loading...

Upcoming Passes

Passes for default location (London). Set your location on the main map for personalized predictions.

Altitude History

Loading altitude history...

Two-Line Element Set

1 57114U 23090P 26127.84327764 -.00000417 00000-0 -58760-5 0 9996
2 57114 43.0003 307.1049 0001617 264.4229 95.6437 15.26739961159387
Epoch: May 7, 2026 • Age: 4 hours

Current Status

Altitude 494.3 km
Velocity 7.62 km/s
Sub-Earth Point -33.92°S, 23.71°E
Launch Date Jun 23, 2023
Age 2.8 years
Type internet

Technical Details

Classification Payload
Mass 305.00 kg
Dry Mass 290.00 kg
Total Mass 305.00 kg
Length 0.20 m
Diameter 2.80 m
Span 9.00 m
Shape Box + pan
Manufacturer SPXS
Bus Type Starlink
Phase Status In Orbit
Owner/State SPXS/US

Most Searched